Location: Cluny
(50.9333°N, 112.8167°W)
Time: 06:20:40
(UTC-07:00)

Hamsat - Visible Passes

Search period start: 24 January 2017 00:00
Search period end: 03 February 2017 00:00
Orbit: 587 x 618 km, 97.6° (Epoch: 24 January)

Date Brightness Start Highest point End Pass type
(mag) Time Alt. Az. Time Alt. Az. Time Alt. Az.
24 Jan ? 05:43:41 10° N 05:44:11 13° N 05:44:11 13° N visible
25 Jan ? 05:55:41 10° N 05:56:17 13° N 05:56:17 13° N visible
26 Jan ? 04:31:31 10° NNE 04:31:34 10° NNE 04:31:34 10° NNE visible
26 Jan ? 06:07:44 10° N 06:08:22 13° NNW 06:08:22 13° NNW visible
27 Jan ? 04:43:18 10° NNE 04:43:40 12° NNE 04:43:40 12° NNE visible
27 Jan ? 06:19:51 10° NNW 06:20:28 13° NNW 06:20:28 13° NNW visible
28 Jan ? 04:55:07 10° NNE 04:55:46 14° NNE 04:55:46 14° NNE visible
28 Jan ? 06:32:03 10° NNW 06:32:35 12° NNW 06:32:35 12° NNW visible
29 Jan ? 05:06:58 10° NNE 05:07:52 16° NNE 05:07:52 16° NNE visible
29 Jan ? 06:44:26 10° NNW 06:44:40 11° NNW 06:44:40 11° NNW visible
30 Jan ? 05:18:52 10° N 05:19:58 18° N 05:19:58 18° N visible
31 Jan ? 05:30:47 10° N 05:32:04 19° N 05:32:04 19° N visible
01 Feb ? 04:07:12 10° NE 04:07:22 11° NE 04:07:22 11° NE visible
01 Feb ? 05:42:44 10° N 05:44:11 19° N 05:44:11 19° N visible
02 Feb ? 04:18:52 10° NNE 04:19:28 13° NE 04:19:28 13° NE visible
02 Feb ? 05:54:44 10° N 05:56:17 19° NNW 05:56:17 19° NNW visible
